QPF
0.00 0.00 0.00 0.00 0.00 0.00 0.00 0.00 0.00 0.00 0.00 0.00 0.00 0.00 0.00 0.00 0.00 0.00 0.00 0.00 0.00 0.00 0.00 0.00 0.00 0.00 0.00 0.00 0.00 0.00 0.00 0.00 0.00 0.00 0.00 0.00 0.00 0.00 0.00 0.00 0.00 0.00 0.00 0.00
0.00 0.00 0.00 0.00 0.00 0.00 0.00 0.00 0.00 0.00 0.00 0.00 0.00 0.00 0.00 0.00 0.00 0.00 0.00 0.00 0.00 0.00 0.00 0.00 0.00 0.00 0.00 0.00 0.00 0.00 0.00 0.00 0.00 0.00 0.00 0.00 0.00 0.00 0.00 0.00 0.01 0.00 0.00 0.00
0.00 0.00 0.00 0.00 0.00 0.00 0.00 0.00 0.00 0.00 0.00 0.00 0.00 0.00 0.00 0.00 0.00 0.00 0.00 0.00 0.00 0.00 0.00 0.00 0.00 0.00 0.00 0.00 0.00 0.00 0.00 0.00 0.00 0.00 0.00 0.00 0.00 0.00 0.00 0.00 0.01 0.01 0.01 0.01
0.00 0.00 0.00 0.00 0.00 0.00 0.00 0.00 0.00 0.00 0.00 0.00 0.00 0.00 0.00 0.00 0.00 0.00 0.00 0.00 0.00 0.00 0.00 0.00 0.00 0.00 0.00 0.00 0.00 0.00 0.00 0.00 0.00 0.00 0.00 0.00 0.00 0.00 0.00 0.00 0.00 0.01 0.01 0.02
0.00 0.00 0.00 0.00 0.00 0.00 0.00 0.00 0.00 0.00 0.00 0.00 0.00 0.00 0.00 0.00 0.00 0.00 0.00 0.00 0.00 0.00 0.00 0.00 0.00 0.00 0.00 0.00 0.00 0.00 0.00 0.00 0.00 0.00 0.00 0.00 0.00 0.00 0.00 0.00 0.00 0.00 0.00 0.01
0.00 0.00 0.00 0.00 0.00 0.00 0.00 0.00 0.00 0.00 0.00 0.00 0.00 0.00 0.00 0.00 0.00 0.00 0.00 0.00 0.00 0.00 0.00 0.00 0.00 0.00 0.00 0.00 0.00 0.00 0.00 0.00 0.00 0.00 0.00 0.00 0.00 0.00 0.00 0.00 0.00 0.00 0.00 0.00
0.00 0.00 0.00 0.00 0.00 0.00 0.00 0.00 0.00 0.00 0.00 0.00 0.00 0.00 0.00 0.00 0.00 0.00 0.00 0.00 0.00 0.00 0.00 0.00 0.00 0.00 0.00 0.00 0.00 0.00 0.00 0.00 0.00 0.00 0.00 0.00 0.00 0.00 0.01 0.01 0.00 0.00 0.00 0.00
0.00 0.00 0.00 0.00 0.00 0.00 0.00 0.00 0.00 0.00 0.00 0.00 0.00 0.00 0.00 0.00 0.00 0.00 0.00 0.00 0.00 0.00 0.00 0.00 0.00 0.00 0.00 0.00 0.00 0.00 0.00 0.00 0.00 0.00 0.00 0.00 0.00 0.00 0.00 0.00 0.00 0.00 0.00 0.00
0.00 0.00 0.00 0.00 0.00 0.00 0.00 0.00 0.00 0.00 0.00 0.00 0.00 0.00 0.00 0.00 0.00 0.00 0.00 0.00 0.00 0.00 0.00 0.00 0.00 0.00 0.00 0.00 0.00 0.00 0.00 0.00 0.00 0.00 0.00 0.00 0.00 0.00 0.00 0.00 0.00 0.00 0.00 0.00
0.00 0.00 0.00 0.00 0.00 0.00 0.00 0.00 0.00 0.00 0.00 0.00 0.00 0.00 0.00 0.00 0.00 0.00 0.00 0.00 0.00 0.00 0.00 0.00 0.00 0.00 0.00 0.00 0.00 0.00 0.00 0.00 0.00 0.00 0.00 0.00 0.00 0.00 0.00 0.00 0.00 0.00 0.00 0.00
0.00 0.00 0.00 0.00 0.00 0.00 0.00 0.00 0.00 0.00 0.00 0.00 0.00 0.00 0.00 0.00 0.00 0.00 0.00 0.00 0.00 0.00 0.00 0.00 0.00 0.00 0.00 0.00 0.00 0.00 0.00 0.00 0.00 0.00 0.00 0.00 0.00 0.00 0.00 0.00 0.00 0.00 0.00 0.00
0.00 0.00 0.00 0.00 0.00 0.00 0.00 0.00 0.00 0.00 0.00 0.00 0.00 0.00 0.00 0.00 0.00 0.00 0.00 0.00 0.00 0.00 0.00 0.00 0.00 0.00 0.00 0.00 0.00 0.00 0.00 0.00 0.00 0.00 0.00 0.00 0.00 0.00 0.00 0.00 0.00 0.00 0.00 0.00
0.00 0.00 0.00 0.00 0.00 0.00 0.00 0.00 0.00 0.00 0.00 0.00 0.00 0.00 0.00 0.00 0.00 0.00 0.00 0.00 0.00 0.00 0.00 0.00 0.00 0.00 0.00 0.00 0.00 0.00 0.00 0.00 0.00 0.00 0.00 0.00 0.00 0.00 0.00 0.00 0.00 0.00 0.00 0.00
0.00 0.00 0.00 0.00 0.00 0.00 0.00 0.00 0.00 0.00 0.00 0.00 0.00 0.00 0.00 0.00 0.00 0.00 0.00 0.00 0.00 0.00 0.00 0.00 0.00 0.00 0.00 0.00 0.00 0.00 0.00 0.00 0.00 0.00 0.00 0.00 0.00 0.00 0.00 0.00 0.00 0.00 0.00 0.00
0.00 0.00 0.00 0.00 0.00 0.00 0.00 0.00 0.00 0.00 0.00 0.00 0.00 0.00 0.00 0.00 0.00 0.00 0.00 0.00 0.00 0.00 0.00 0.00 0.00 0.00 0.00 0.00 0.00 0.00 0.00 0.00 0.00 0.00 0.00 0.00 0.00 0.00 0.00 0.00 0.00 0.00 0.00 0.00
0.00 0.00 0.00 0.00 0.00 0.00 0.00 0.00 0.00 0.00 0.00 0.00 0.00 0.00 0.00 0.00 0.00 0.00 0.00 0.00 0.00 0.00 0.00 0.00 0.00 0.00 0.00 0.00 0.00 0.00 0.00 0.00 0.00 0.00 0.00 0.00 0.00 0.00 0.00 0.00 0.00 0.00 0.00 0.00
0.00 0.00 0.00 0.00 0.00 0.00 0.00 0.00 0.00 0.00 0.00 0.00 0.00 0.00 0.00 0.00 0.00 0.00 0.00 0.00 0.00 0.00 0.00 0.00 0.00 0.00 0.00 0.00 0.00 0.00 0.00 0.00 0.00 0.00 0.00 0.00 0.00 0.00 0.00 0.00 0.00 0.00 0.00 0.00
0.00 0.00 0.00 0.00 0.00 0.00 0.00 0.00 0.00 0.00 0.00 0.00 0.00 0.00 0.00 0.00 0.00 0.00 0.00 0.00 0.00 0.00 0.00 0.00 0.00 0.00 0.00 0.00 0.00 0.00 0.00 0.00 0.00 0.00 0.00 0.00 0.00 0.00 0.00 0.00 0.00 0.00 0.00 0.00
0.00 0.00 0.00 0.00 0.00 0.00 0.00 0.00 0.00 0.00 0.00 0.00 0.00 0.00 0.00 0.00 0.00 0.00 0.00 0.00 0.00 0.00 0.00 0.00 0.00 0.00 0.00 0.00 0.00 0.00 0.00 0.00 0.00 0.00 0.00 0.00 0.00 0.00 0.00 0.00 0.00 0.00 0.00 0.00
0.00 0.00 0.00 0.00 0.00 0.00 0.00 0.00 0.00 0.00 0.00 0.00 0.00 0.00 0.00 0.00 0.00 0.00 0.00 0.00 0.00 0.00 0.00 0.00 0.00 0.00 0.00 0.00 0.00 0.00 0.00 0.00 0.00 0.00 0.00 0.00 0.00 0.00 0.00 0.00 0.00 0.00 0.00 0.00
0.00 0.00 0.00 0.00 0.00 0.00 0.00 0.00 0.00 0.00 0.00 0.00 0.00 0.00 0.00 0.00 0.00 0.00 0.00 0.00 0.00 0.00 0.00 0.00 0.00 0.00 0.00 0.00 0.00 0.00 0.00 0.00 0.00 0.00 0.00 0.00 0.00 0.00 0.00 0.00 0.00 0.00 0.00 0.00
0.00 0.00 0.00 0.00 0.00 0.00 0.00 0.00 0.00 0.00 0.00 0.00 0.00 0.00 0.00 0.00 0.00 0.00 0.00 0.00 0.00 0.00 0.00 0.00 0.00 0.00 0.00 0.00 0.00 0.00 0.00 0.00 0.00 0.00 0.00 0.00 0.00 0.00 0.00 0.00 0.00 0.00 0.00 0.00
0.00 0.00 0.00 0.00 0.00 0.00 0.00 0.00 0.00 0.00 0.00 0.00 0.00 0.00 0.00 0.00 0.00 0.00 0.00 0.00 0.00 0.00 0.00 0.00 0.00 0.00 0.00 0.00 0.00 0.00 0.00 0.00 0.00 0.00 0.00 0.00 0.00 0.00 0.00 0.00 0.00 0.00 0.00 0.00
0.00 0.00 0.00 0.00 0.00 0.00 0.00 0.00 0.00 0.00 0.00 0.00 0.00 0.00 0.00 0.00 0.00 0.00 0.00 0.00 0.00 0.00 0.00 0.00 0.00 0.00 0.00 0.00 0.00 0.00 0.00 0.00 0.00 0.00 0.00 0.00 0.00 0.00 0.00 0.00 0.00 0.00 0.00 0.00
0.00 0.00 0.00 0.00 0.00 0.00 0.00 0.00 0.00 0.00 0.00 0.00 0.00 0.00 0.00 0.00 0.00 0.00 0.00 0.00 0.00 0.00 0.00 0.00 0.00 0.00 0.00 0.00 0.00 0.00 0.00 0.00 0.00 0.00 0.00 0.00 0.00 0.00 0.00 0.00 0.00 0.00 0.00 0.00
0.00 0.00 0.00 0.00 0.00 0.00 0.00 0.00 0.00 0.00 0.00 0.00 0.00 0.00 0.00 0.00 0.00 0.00 0.00 0.00 0.00 0.00 0.00 0.00 0.00 0.00 0.00 0.00 0.00 0.00 0.00 0.00 0.00 0.00 0.00 0.00 0.00 0.00 0.00 0.00 0.00 0.00 0.00 0.00
MSLP
1016.65 1016.54 1015.77 1016.69 1016.88 1017.44 1017.82 1018.27 1018.08 1017.86 1017.75 1017.80 1017.39 1017.30 1016.97 1017.06 1017.70 1017.76 1017.72 1017.99 1018.08 1017.85 1017.15 1017.62 1017.94 1018.24 1018.65 1019.14 1019.45 1019.68 1020.14 1020.52 1021.12 1021.72 1022.22 1022.40 1022.56 1022.87 1022.92 1023.07 1023.51 1023.88 1024.11 1024.35
1017.46 1016.24 1016.82 1017.10 1017.18 1017.48 1018.02 1018.46 1018.58 1018.27 1018.04 1018.32 1017.70 1017.32 1016.84 1016.92 1016.94 1016.95 1017.07 1017.40 1017.31 1017.37 1017.32 1017.25 1017.56 1017.81 1017.87 1018.44 1018.82 1019.15 1019.22 1019.95 1020.42 1020.77 1021.16 1021.52 1021.96 1022.27 1022.16 1022.47 1022.79 1023.08 1023.51 1023.96
1016.76 1016.78 1017.20 1017.29 1017.42 1017.68 1017.91 1018.45 1018.75 1018.86 1018.53 1018.43 1018.19 1017.12 1016.79 1016.20 1016.25 1016.33 1016.36 1016.23 1016.77 1016.89 1016.79 1016.92 1017.13 1017.48 1017.60 1017.83 1018.15 1018.29 1018.60 1019.13 1019.57 1020.13 1020.66 1021.32 1021.76 1022.11 1022.14 1022.30 1022.67 1022.81 1022.98 1023.32
1017.22 1016.85 1016.98 1017.11 1017.19 1017.66 1018.13 1018.38 1018.85 1019.32 1019.60 1019.28 1018.67 1017.06 1015.59 1015.76 1015.60 1015.38 1015.18 1015.73 1015.77 1015.94 1016.17 1016.40 1016.50 1016.90 1017.16 1017.07 1017.48 1017.61 1017.89 1018.47 1018.95 1019.40 1020.01 1020.31 1020.83 1021.46 1021.68 1021.75 1022.07 1022.31 1022.55 1022.79
1016.16 1016.56 1017.04 1016.96 1016.42 1017.44 1018.02 1018.05 1019.08 1019.59 1020.17 1020.36 1019.34 1018.77 1015.09 1014.91 1014.65 1013.91 1014.42 1014.86 1014.83 1014.95 1015.26 1015.53 1015.77 1016.14 1016.30 1016.82 1017.24 1017.32 1017.45 1017.92 1018.44 1018.95 1019.10 1019.59 1020.10 1020.49 1021.01 1021.49 1021.84 1022.03 1022.12 1022.38
1016.02 1016.10 1016.39 1016.35 1016.87 1017.11 1017.90 1018.56 1019.50 1020.35 1020.87 1020.71 1018.48 1018.50 1015.35 1014.13 1013.11 1013.65 1013.52 1013.68 1013.77 1014.16 1014.51 1015.06 1015.59 1016.18 1016.45 1016.93 1017.24 1017.50 1017.56 1017.84 1018.13 1018.60 1018.79 1019.06 1019.49 1020.12 1020.78 1021.22 1021.69 1021.72 1022.05 1022.28
1016.36 1016.38 1016.13 1016.14 1016.81 1017.21 1017.61 1019.29 1020.96 1021.65 1021.66 1019.51 1018.07 1018.38 1014.17 1013.17 1013.06 1012.87 1012.81 1012.91 1013.08 1013.85 1014.50 1015.39 1015.98 1016.13 1016.56 1016.95 1017.16 1017.41 1017.49 1017.91 1018.18 1018.44 1018.40 1018.69 1018.91 1019.55 1020.13 1020.44 1020.99 1021.54 1022.03 1022.42
1015.85 1016.39 1015.46 1015.35 1015.62 1016.14 1017.30 1017.96 1018.53 1020.33 1020.95 1019.52 1018.65 1017.02 1013.27 1012.74 1012.12 1012.32 1012.85 1012.97 1013.33 1013.90 1014.16 1014.73 1015.43 1015.95 1016.39 1016.79 1017.03 1017.25 1017.22 1017.56 1018.05 1018.44 1018.24 1018.42 1018.79 1019.08 1019.58 1020.23 1020.77 1021.48 1021.97 1022.54
1014.75 1015.23 1015.03 1014.70 1015.02 1015.28 1016.96 1017.44 1017.54 1019.14 1020.95 1020.12 1017.95 1015.70 1013.47 1012.57 1012.41 1012.40 1012.61 1013.28 1013.17 1013.63 1014.41 1014.97 1015.42 1015.73 1016.10 1016.59 1016.82 1017.15 1017.33 1017.34 1017.87 1018.16 1018.32 1018.34 1018.69 1019.03 1019.41 1020.13 1020.77 1021.65 1022.21 1022.91
1013.36 1014.73 1015.01 1015.02 1014.90 1015.22 1015.15 1015.96 1017.47 1018.39 1019.95 1019.64 1017.45 1015.64 1013.06 1012.33 1012.23 1011.96 1012.37 1012.63 1012.66 1013.32 1014.56 1015.17 1015.82 1016.19 1016.23 1016.71 1017.17 1017.34 1017.32 1017.86 1017.96 1018.23 1018.47 1018.38 1018.75 1019.06 1019.40 1020.19 1021.20 1021.94 1022.67 1022.93
1013.10 1013.66 1015.71 1015.32 1014.66 1014.47 1015.17 1015.35 1016.15 1016.75 1018.11 1018.12 1017.10 1014.40 1012.19 1011.36 1011.47 1011.59 1011.36 1011.72 1012.57 1013.15 1014.18 1015.40 1016.02 1016.44 1016.51 1016.84 1017.39 1017.57 1017.47 1017.94 1018.44 1018.51 1018.93 1018.89 1019.17 1019.50 1019.88 1020.58 1021.50 1022.29 1022.91 1023.17
1012.60 1013.52 1015.33 1015.09 1014.62 1014.27 1014.42 1014.40 1014.78 1015.51 1016.39 1016.70 1016.30 1012.88 1011.42 1010.88 1011.08 1011.48 1011.52 1012.10 1012.73 1013.64 1014.81 1015.58 1016.27 1016.84 1016.99 1017.20 1017.60 1017.83 1017.78 1018.15 1018.79 1018.97 1019.14 1019.31 1019.72 1019.88 1020.35 1021.06 1021.91 1022.76 1023.18 1023.79
1011.37 1012.80 1014.89 1015.26 1015.36 1014.53 1013.90 1013.78 1013.30 1013.91 1014.73 1014.89 1014.64 1011.61 1010.83 1010.75 1010.98 1011.44 1011.94 1012.45 1013.01 1013.44 1014.40 1015.56 1016.27 1016.91 1016.93 1017.27 1017.63 1017.80 1017.96 1018.38 1019.08 1019.62 1019.54 1020.01 1020.40 1020.71 1020.84 1021.65 1022.48 1023.05 1023.34 1023.90
1010.44 1012.13 1013.23 1013.55 1013.16 1013.64 1013.80 1013.81 1013.75 1013.34 1013.77 1013.39 1012.67 1011.27 1010.90 1010.63 1010.77 1011.09 1011.84 1012.37 1013.03 1013.90 1014.40 1015.11 1015.85 1016.23 1016.86 1017.65 1017.87 1018.02 1018.16 1018.22 1018.99 1019.76 1019.79 1020.23 1020.82 1021.30 1021.72 1022.25 1022.95 1023.27 1023.77 1024.20
1010.35 1011.83 1012.98 1013.28 1012.90 1012.31 1012.56 1013.12 1013.29 1013.20 1012.62 1012.49 1010.63 1011.03 1010.57 1010.47 1010.43 1010.86 1011.30 1012.33 1012.99 1013.58 1014.29 1014.86 1015.48 1016.03 1016.77 1017.37 1017.74 1018.05 1018.32 1018.59 1018.85 1019.76 1020.25 1020.85 1021.30 1021.82 1022.37 1022.84 1023.52 1023.85 1024.39 1024.92
1010.95 1011.88 1012.72 1013.66 1013.36 1012.75 1013.13 1012.44 1012.39 1012.23 1011.71 1011.36 1010.04 1009.43 1009.70 1010.21 1010.40 1010.79 1011.03 1011.83 1012.46 1012.57 1012.98 1013.67 1014.51 1015.38 1016.07 1016.59 1017.08 1017.73 1018.41 1018.69 1019.13 1019.88 1020.48 1021.02 1021.53 1022.21 1022.60 1023.20 1024.02 1024.46 1025.13 1025.63
1011.10 1012.20 1013.29 1014.22 1014.18 1013.72 1012.74 1010.68 1011.14 1010.72 1010.35 1009.71 1009.99 1007.44 1009.32 1009.79 1010.10 1009.82 1010.21 1010.89 1011.16 1011.24 1011.75 1012.77 1013.64 1014.46 1015.29 1015.95 1016.52 1017.20 1018.06 1018.60 1019.47 1020.04 1020.67 1021.04 1021.61 1022.53 1023.07 1023.64 1024.17 1025.03 1025.58 1025.83
1010.62 1012.04 1013.07 1014.47 1014.42 1013.50 1010.18 1009.85 1009.62 1009.66 1008.89 1009.06 1008.51 1008.50 1009.02 1008.80 1008.72 1009.06 1009.33 1009.61 1009.64 1010.05 1010.85 1011.64 1012.47 1013.34 1014.38 1015.41 1016.37 1017.11 1017.84 1018.70 1019.47 1020.22 1020.76 1021.24 1021.94 1022.80 1023.54 1023.95 1024.63 1025.24 1025.66 1026.09
1010.31 1011.67 1013.42 1014.11 1014.51 1011.94 1009.67 1009.92 1009.94 1009.99 1008.44 1008.19 1008.32 1008.99 1008.88 1008.96 1009.17 1008.58 1008.22 1008.32 1008.49 1008.97 1009.26 1009.89 1011.03 1012.22 1013.56 1014.66 1015.70 1016.78 1017.92 1018.83 1019.51 1020.19 1020.78 1021.47 1022.09 1022.95 1023.51 1024.09 1024.93 1025.46 1025.77 1026.45
1011.32 1011.25 1012.56 1014.28 1013.95 1011.94 1008.29 1008.34 1009.13 1009.62 1006.50 1007.70 1007.96 1008.17 1008.39 1008.95 1009.30 1007.38 1007.04 1007.42 1007.58 1007.95 1008.68 1009.60 1010.63 1011.83 1012.96 1013.96 1015.00 1016.31 1017.46 1018.37 1019.14 1019.91 1020.64 1021.37 1022.09 1022.75 1023.54 1024.19 1024.97 1025.42 1025.98 1026.40
1012.23 1012.28 1012.61 1013.74 1013.04 1010.24 1008.73 1007.85 1008.57 1009.83 1006.82 1006.92 1006.80 1006.77 1007.29 1008.01 1006.94 1007.39 1007.22 1007.25 1007.59 1008.03 1008.77 1009.58 1010.26 1011.00 1012.05 1013.43 1014.54 1015.80 1016.96 1017.60 1018.36 1019.44 1020.54 1021.46 1022.18 1022.70 1023.51 1024.36 1024.96 1025.52 1026.06 1026.58
1010.74 1011.94 1012.66 1012.89 1012.07 1009.94 1008.02 1008.60 1007.98 1007.08 1007.17 1007.59 1007.30 1007.23 1007.65 1007.55 1007.68 1007.77 1008.05 1008.34 1008.57 1008.88 1009.43 1010.10 1010.69 1011.32 1012.10 1012.97 1013.90 1014.90 1016.05 1017.16 1018.21 1019.20 1020.23 1021.19 1022.07 1022.90 1023.77 1024.42 1025.12 1025.62 1026.15 1026.68
1009.81 1008.85 1009.86 1010.08 1008.47 1007.82 1007.50 1007.26 1007.21 1007.36 1007.63 1007.75 1007.70 1007.83 1007.79 1008.03 1008.07 1008.30 1008.73 1009.07 1009.60 1010.01 1010.54 1010.82 1011.12 1011.96 1012.70 1013.19 1013.72 1014.55 1015.53 1016.74 1018.05 1019.08 1020.13 1021.19 1022.23 1023.11 1023.81 1024.44 1025.09 1025.66 1026.16 1026.55
1009.26 1008.80 1009.01 1008.99 1008.22 1007.82 1007.77 1007.89 1007.84 1007.76 1007.84 1008.21 1008.38 1008.43 1008.53 1008.66 1008.86 1009.20 1009.69 1010.11 1010.46 1010.96 1011.28 1011.55 1012.07 1012.70 1013.10 1013.39 1013.79 1014.45 1015.44 1016.42 1017.49 1018.79 1020.08 1021.24 1022.10 1022.98 1023.72 1024.20 1024.74 1025.25 1025.74 1026.27
1008.20 1008.32 1008.30 1008.48 1008.24 1008.08 1007.91 1007.85 1008.01 1008.44 1008.69 1009.01 1009.13 1009.04 1009.24 1009.44 1009.91 1010.28 1010.59 1011.08 1011.54 1011.86 1012.08 1012.36 1012.71 1013.12 1013.59 1013.90 1014.28 1014.86 1015.53 1016.29 1017.51 1018.75 1019.97 1021.03 1021.91 1022.52 1023.29 1024.02 1024.56 1024.98 1025.23 1025.45
1007.64 1007.54 1007.78 1007.26 1007.04 1007.10 1007.46 1007.72 1008.45 1008.96 1009.29 1009.39 1009.44 1009.88 1010.10 1010.37 1010.88 1011.26 1011.63 1011.93 1012.23 1012.53 1012.82 1013.05 1013.25 1013.57 1014.02 1014.34 1014.84 1015.50 1016.09 1016.49 1017.30 1018.52 1019.62 1020.54 1021.48 1022.61 1023.31 1023.96 1024.76 1024.99 1025.05 1025.30
Thickness
5591 5596 5611 5611 5619 5619 5612 5614 5625 5630 5640 5636 5643 5648 5661 5667 5661 5668 5679 5679 5685 5692 5701 5700 5699 5700 5700 5697 5697 5696 5695 5691 5688 5684 5681 5680 5678 5676 5675 5674 5670 5666 5664 5663
5574 5594 5602 5606 5612 5613 5608 5603 5604 5616 5628 5621 5631 5633 5650 5655 5663 5668 5677 5677 5683 5688 5689 5695 5697 5699 5703 5699 5697 5697 5698 5693 5689 5688 5684 5683 5678 5676 5676 5673 5671 5668 5665 5660
5579 5587 5591 5597 5598 5600 5602 5600 5600 5602 5611 5617 5620 5628 5640 5656 5659 5666 5670 5680 5680 5682 5688 5690 5694 5696 5697 5699 5698 5699 5698 5695 5693 5689 5684 5679 5676 5673 5673 5671 5668 5666 5664 5660
5563 5578 5583 5582 5591 5592 5587 5596 5597 5594 5591 5591 5607 5601 5638 5651 5654 5665 5677 5672 5681 5685 5686 5690 5696 5696 5697 5701 5697 5700 5699 5695 5693 5691 5686 5685 5681 5673 5670 5671 5668 5664 5661 5658
5570 5569 5571 5578 5596 5588 5586 5593 5584 5582 5572 5570 5592 5587 5634 5644 5651 5675 5674 5672 5680 5687 5690 5692 5696 5696 5697 5693 5692 5695 5697 5694 5691 5688 5690 5685 5681 5676 5670 5668 5663 5661 5658 5655
5561 5569 5570 5580 5579 5584 5580 5575 5572 5562 5556 5552 5600 5591 5614 5644 5670 5667 5672 5678 5684 5689 5688 5689 5689 5688 5689 5685 5685 5685 5688 5687 5687 5684 5685 5683 5680 5673 5668 5663 5658 5657 5653 5649
5549 5556 5568 5571 5568 5570 5572 5555 5538 5537 5526 5578 5588 5571 5640 5651 5654 5663 5669 5676 5682 5679 5675 5671 5673 5677 5678 5678 5679 5679 5681 5679 5677 5678 5681 5678 5677 5671 5666 5664 5658 5652 5647 5641
5542 5541 5561 5569 5571 5565 5560 5560 5548 5523 5525 5581 5565 5576 5644 5643 5656 5658 5653 5659 5662 5664 5669 5672 5672 5671 5672 5673 5674 5675 5677 5676 5672 5668 5673 5672 5669 5667 5663 5657 5652 5645 5639 5633
5536 5544 5555 5565 5569 5571 5545 5543 5566 5540 5460 5517 5558 5594 5626 5631 5642 5648 5650 5648 5656 5655 5656 5658 5662 5665 5666 5667 5668 5667 5669 5671 5667 5664 5663 5664 5661 5659 5656 5649 5643 5635 5629 5620
5551 5541 5549 5553 5558 5556 5557 5566 5544 5526 5513 5504 5560 5581 5623 5635 5638 5648 5645 5648 5655 5651 5648 5650 5649 5650 5655 5655 5654 5656 5660 5656 5657 5656 5654 5656 5652 5649 5646 5639 5630 5623 5616 5611
5540 5543 5527 5538 5545 5551 5548 5545 5546 5551 5525 5535 5554 5583 5613 5636 5638 5641 5653 5651 5648 5646 5641 5636 5636 5636 5640 5641 5640 5642 5647 5645 5642 5643 5640 5642 5640 5636 5633 5627 5618 5611 5605 5602
5537 5524 5498 5523 5540 5546 5552 5554 5559 5545 5544 5524 5531 5583 5620 5624 5623 5625 5637 5632 5627 5626 5622 5621 5621 5620 5625 5628 5627 5629 5632 5632 5629 5628 5628 5628 5625 5624 5620 5614 5605 5598 5593 5587
5536 5513 5465 5503 5527 5537 5540 5547 5564 5564 5535 5543 5539 5595 5609 5609 5612 5615 5618 5614 5613 5615 5612 5610 5611 5610 5615 5616 5617 5619 5620 5618 5615 5611 5614 5611 5609 5606 5606 5599 5590 5585 5581 5575
5548 5519 5519 5532 5549 5535 5537 5538 5542 5551 5542 5557 5540 5595 5596 5609 5609 5613 5608 5607 5602 5601 5603 5603 5602 5604 5603 5601 5603 5605 5607 5608 5604 5600 5602 5599 5593 5591 5587 5582 5575 5571 5566 5561
5537 5529 5503 5525 5538 5543 5538 5537 5533 5533 5552 5540 5584 5569 5585 5596 5602 5605 5603 5592 5592 5594 5593 5594 5593 5593 5592 5592 5593 5593 5593 5593 5594 5589 5587 5582 5579 5575 5570 5565 5559 5555 5550 5545
5513 5494 5503 5498 5519 5524 5514 5530 5531 5535 5546 5551 5574 5578 5590 5587 5586 5587 5592 5589 5590 5595 5597 5595 5591 5588 5587 5587 5586 5583 5581 5581 5579 5576 5573 5570 5565 5560 5557 5552 5544 5540 5533 5527
5508 5484 5475 5476 5501 5501 5508 5534 5535 5546 5555 5565 5552 5603 5576 5577 5579 5590 5590 5586 5592 5598 5601 5595 5589 5584 5582 5579 5577 5576 5571 5569 5565 5562 5558 5557 5553 5546 5541 5536 5532 5523 5516 5512
5506 5512 5487 5466 5480 5488 5539 5541 5549 5549 5562 5561 5571 5576 5568 5578 5583 5582 5583 5582 5591 5598 5595 5592 5587 5583 5577 5571 5568 5565 5561 5557 5553 5549 5546 5542 5537 5531 5524 5520 5514 5507 5501 5496
5499 5497 5470 5485 5453 5510 5540 5526 5530 5532 5554 5559 5562 5556 5562 5564 5570 5575 5583 5588 5598 5596 5598 5596 5589 5582 5573 5567 5562 5555 5549 5544 5542 5538 5533 5527 5523 5516 5510 5505 5498 5492 5487 5479
5474 5506 5506 5420 5480 5497 5540 5545 5534 5540 5555 5563 5552 5552 5557 5547 5540 5586 5595 5585 5590 5593 5590 5586 5580 5572 5565 5560 5553 5545 5539 5534 5531 5525 5520 5514 5508 5502 5495 5490 5482 5476 5470 5465
5450 5444 5490 5425 5483 5485 5517 5533 5536 5520 5555 5540 5556 5565 5560 5558 5580 5574 5581 5586 5582 5579 5577 5573 5571 5569 5562 5551 5545 5540 5533 5531 5525 5515 5505 5498 5493 5488 5481 5473 5466 5461 5456 5451
5474 5454 5447 5417 5432 5510 5507 5512 5542 5555 5540 5536 5548 5550 5546 5549 5553 5557 5554 5560 5561 5562 5558 5556 5555 5553 5549 5544 5540 5535 5528 5519 5508 5500 5493 5485 5477 5470 5463 5457 5451 5447 5442 5436
5483 5495 5477 5501 5513 5515 5503 5523 5523 5524 5529 5532 5537 5536 5540 5540 5541 5545 5540 5536 5535 5539 5536 5536 5539 5534 5530 5530 5528 5523 5516 5503 5493 5487 5480 5471 5461 5454 5448 5443 5438 5432 5426 5422
5459 5459 5476 5492 5485 5497 5495 5498 5502 5509 5516 5513 5514 5518 5522 5528 5527 5527 5520 5520 5521 5515 5518 5514 5515 5514 5514 5514 5513 5511 5500 5492 5486 5477 5466 5456 5449 5441 5436 5431 5426 5421 5415 5409
5467 5470 5462 5459 5477 5488 5488 5489 5496 5493 5490 5490 5492 5499 5501 5506 5506 5507 5499 5495 5502 5501 5498 5500 5501 5499 5496 5495 5495 5490 5484 5479 5471 5461 5451 5443 5437 5432 5424 5418 5413 5408 5403 5399
5453 5465 5475 5474 5481 5492 5490 5479 5476 5476 5479 5479 5486 5486 5485 5487 5488 5482 5477 5480 5479 5480 5480 5482 5482 5482 5479 5478 5474 5470 5465 5463 5457 5447 5439 5432 5425 5415 5410 5405 5394 5391 5388 5383